Total_Precipitation_Accumulation
0.05 0.04 0.04 0.03 0.02 0.01 0.01 0.02 0.01 0.00 0.00 0.00 0.00 0.00 0.00 0.00 0.00 0.00 0.00 0.00 0.00 0.00
0.05 0.04 0.04 0.06 0.04 0.03 0.05 0.03 0.01 0.00 0.00 0.00 0.00 0.00 0.00 0.00 0.00 0.00 0.00 0.00 0.00 0.00
0.07 0.06 0.06 0.13 0.09 0.10 0.15 0.12 0.04 0.01 0.00 0.00 0.00 0.00 0.00 0.00 0.00 0.00 0.00 0.00 0.00 0.00
0.10 0.09 0.06 0.11 0.14 0.16 0.18 0.25 0.22 0.10 0.03 0.01 0.00 0.00 0.00 0.00 0.00 0.00 0.00 0.00 0.00 0.00
0.12 0.11 0.05 0.07 0.12 0.15 0.15 0.12 0.13 0.15 0.12 0.07 0.03 0.01 0.00 0.00 0.00 0.00 0.00 0.00 0.00 0.00
0.14 0.13 0.11 0.11 0.12 0.14 0.10 0.07 0.07 0.05 0.04 0.03 0.02 0.02 0.01 0.00 0.00 0.00 0.00 0.00 0.00 0.00
0.09 0.14 0.16 0.19 0.15 0.14 0.11 0.08 0.05 0.05 0.04 0.02 0.01 0.01 0.00 0.00 0.00 0.00 0.00 0.00 0.00 0.00
0.08 0.10 0.14 0.16 0.17 0.15 0.12 0.09 0.07 0.07 0.06 0.04 0.03 0.02 0.02 0.02 0.02 0.01 0.01 0.01 0.01 0.01
0.11 0.12 0.10 0.08 0.12 0.14 0.11 0.08 0.07 0.05 0.06 0.06 0.06 0.08 0.09 0.07 0.04 0.04 0.02 0.01 0.02 0.07
0.19 0.25 0.20 0.12 0.11 0.08 0.09 0.09 0.06 0.05 0.04 0.04 0.04 0.06 0.05 0.05 0.03 0.02 0.01 0.01 0.05 0.15
0.35 0.22 0.26 0.20 0.16 0.11 0.07 0.09 0.10 0.09 0.06 0.03 0.04 0.06 0.03 0.04 0.03 0.02 0.02 0.03 0.04 0.05
0.47 0.44 0.25 0.16 0.15 0.13 0.09 0.05 0.06 0.10 0.11 0.08 0.06 0.10 0.06 0.05 0.04 0.07 0.14 0.18 0.21 0.24
0.55 0.51 0.54 0.39 0.21 0.13 0.16 0.16 0.13 0.11 0.12 0.20 0.11 0.18 0.10 0.11 0.09 0.10 0.12 0.13 0.16 0.34
0.49 0.73 0.85 0.77 0.66 0.54 0.35 0.26 0.20 0.22 0.21 0.20 0.24 0.25 0.29 0.23 0.16 0.18 0.27 0.34 0.39 0.47